Location: Driftpile
(55.3500°N, 115.7667°W)
Time: 02:05:34
(UTC+00:00)

N. Korean satellite - Pass Details

Date: 04 December 2021
Orbit: 446 x 492 km, 97.3° (Epoch: 17 January)

Event Time Altitude Azimuth Distance (km) Brightness Sun altitude
Rises 01:18:15 0° 215° (SW) 2,530 11.1 -16.1°
Reaches altitude 10° 01:21:21 10° 246° (WSW) 1,645 10.5 -16.5°
Maximum altitude 01:22:57 13° 273° (W) 1,488 10.1 -16.7°
Drops below altitude 10° 01:24:33 10° 300° (WNW) 1,639 9.9 -17.0°
Sets 01:27:38 0° 330° (NNW) 2,510 10.4 -17.4°
